sat.trackr.live / text

‹ back to catalog

ONEWEB-0369

NORAD 49295 · 2021-090S

PAYLOAD ACTIVE UNKNOWN

§ Identity

Operator
Country
UK
Launch date
2021-10-14
Launch site
VOSTO
Launch vehicle
Mass (kg)
RCS (m²)

Purposes: comms

External: N2YO · Heavens-Above · Gunter

§ Orbital elements

Epoch: 2026-09-13T01:17:14.928000Z

Period
109.11 min
Inclination
87.9110°
Eccentricity
0.0002342
Mean motion
13.19725975 rev/d
Perigee alt
1,184.0 km
Apogee alt
1,187.5 km
Semi-major
7,563.9 km
B*
1.1386e-4
RAAN
287.4695°
Arg perigee
95.5121°
Mean anomaly
264.6279°
Rev number
23,800

§ Raw data

ONEWEB-03691 49295U 21090S   26256.05364500  .00000059  00000+0  11386-3 0  99902 49295  87.9110 287.4695 0002342  95.5121 264.6279 13.19725975238000

JSON: /api/v1/satellites/49295 · /tle

For live sub-satellite position, see the globe view (requires WebGL).

§ Visibility from observer

Set your observer location to see the next 7 days of passes ≥ 10°. The values pass through the URL so the page stays shareable.

No JS? Fill the form by hand. The geolocation button needs JavaScript.